Location: Brunsen
(51.8651°N, 9.8610°E)
Time: 14:50:31
(UTC+00:00)

NOSS 3-4 (C) - Pass Details

Date: 23 May 2024
Orbit: 814 x 1397 km, 63.4° (Epoch: 04 June)

Event Time Altitude Azimuth Distance (km) Brightness Sun altitude
Rises 00:33:31 0° 312° (NW) 3,777 6.9 -15.6°
Reaches altitude 10° 00:36:10 10° 305° (NW) 2,905 6.2 -15.5°
Maximum altitude 00:42:26 37° 241° (WSW) 1,738 4.4 -15.1°
Enters shadow 00:47:18 19° 186° (S) 2,618 5.1 -14.9°
